Search for airport 
image banner adimage banner adimage banner ad
image banner ad

CL38 - Beta Platform Eureka

Located in Huntington Beach, United States

ICAO - CL38, IATA -

Data provided by Airmate  

General information

Coordinates: N33°35'0" W118°7'44"
Elevation is 123 feet MSL.
Magnetic variation is 14° East
View others Airports in California

Operational data

Special qualification required
Current time UTC:
Current local time:
Weather at : KSLI - Los Alamitos Aaf ( 24 km )
METAR: KSLI 260958Z AUTO 22004KT 10SM OVC015 18/15 A3000 RMK AO2 SLP162 T01800152
TAF: TAF AMD KSLI 260600Z 2606/2711 VRB06KT 9999 OVC010 QNH3000INS BECMG 2610/2611 VRB06KT 9999 SCT009 QNH2999INS TEMPO 2611/2616 6000 BR OVC009 BECMG 2618/2619 VRB06KT 9999 FEW100 QNH2997INS TX26/2621Z TN14/2611Z
View NOTAMs / SUP AIP / TFR affecting this airport [VIEW]
Communications frequencies: [VIEW]

Runways:

Airport contact information

Address: Huntington Beach United States

Satellite view of CL38